Previsão horária em Almuniente

Hoje, 19 Janeiro, Terça-feira

Tempo Temperatura Precipitação Vento Pressão Humidade
00:00 +3°C° 0 mm 1 m/s 731 mmHg 81%
01:00 +3°C° 0 mm 1 m/s 731 mmHg 81%
02:00 +3°C° 0 mm 1 m/s 730 mmHg 82%
03:00 +3°C° 0 mm 1 m/s 730 mmHg 82%
04:00 +3°C° 0 mm 1 m/s 730 mmHg 81%
05:00 +2°C° 0 mm 1 m/s 730 mmHg 81%
06:00 +1°C° 0 mm 0 m/s 730 mmHg 82%
07:00 +2°C° 0 mm 0 m/s 730 mmHg 78%
08:00 +4°C° 0 mm 1 m/s 729 mmHg 75%
09:00 +5°C° 0 mm 1 m/s 729 mmHg 72%
10:00 +6°C° 0 mm 1 m/s 729 mmHg 68%
11:00 +8°C° 0 mm 1 m/s 729 mmHg 64%
12:00 +8°C° 0 mm 2 m/s 729 mmHg 59%
13:00 +8°C° 0 mm 2 m/s 728 mmHg 58%
14:00 +9°C° 0 mm 2 m/s 727 mmHg 58%
15:00 +10°C° 0 mm 1 m/s 727 mmHg 57%
16:00 +8°C° 0 mm 2 m/s 727 mmHg 64%
17:00 +6°C° 0 mm 2 m/s 727 mmHg 71%
18:00 +5°C° 0 mm 2 m/s 727 mmHg 77%
19:00 +4°C° 0 mm 2 m/s 727 mmHg 77%
20:00 +4°C° 0 mm 2 m/s 726 mmHg 77%
21:00 +4°C° 0 mm 2 m/s 726 mmHg 77%
22:00 +4°C° 0 mm 2 m/s 726 mmHg 77%
23:00 +4°C° 0 mm 2 m/s 725 mmHg 76%

Amanhã, 20 Janeiro, Quarta-feira

Tempo Temperatura Precipitação Vento Pressão Humidade
00:00 +4°C° 0 mm 2 m/s 725 mmHg 76%
01:00 +3°C° 0 mm 2 m/s 724 mmHg 76%
02:00 +2°C° 0 mm 3 m/s 723 mmHg 76%
03:00 +2°C° 0 mm 3 m/s 723 mmHg 76%
04:00 +2°C° 0 mm 3 m/s 722 mmHg 76%
05:00 +3°C° 0 mm 2 m/s 722 mmHg 75%
06:00 +3°C° 0 mm 2 m/s 722 mmHg 74%
07:00 +4°C° 0 mm 2 m/s 722 mmHg 72%
08:00 +4°C° 0 mm 2 m/s 721 mmHg 70%
09:00 +5°C° 0 mm 2 m/s 721 mmHg 69%
10:00 +5°C° 0 mm 3 m/s 721 mmHg 65%
11:00 +6°C° 0 mm 4 m/s 720 mmHg 62%
12:00 +7°C° 0 mm 5 m/s 720 mmHg 59%
13:00 +7°C° 0 mm 4 m/s 719 mmHg 63%
14:00 +7°C° 0 mm 4 m/s 719 mmHg 67%
15:00 +6°C° 0 mm 4 m/s 718 mmHg 71%
16:00 +6°C° 0 mm 4 m/s 718 mmHg 74%
17:00 +6°C° 0 mm 4 m/s 718 mmHg 76%
18:00 +5°C° 0 mm 3 m/s 718 mmHg 79%
19:00 +5°C° 0.5 mm 3 m/s 718 mmHg 82%
20:00 +5°C° 0.5 mm 3 m/s 718 mmHg 86%
21:00 +5°C° 0.5 mm 3 m/s 718 mmHg 89%
22:00 +5°C° 0.1 mm 3 m/s 718 mmHg 89%
23:00 +6°C° 0.1 mm 2 m/s 719 mmHg 89%

Depois de amanhã, 21 Janeiro, Quinta-feira

Tempo Temperatura Precipitação Vento Pressão Humidade
00:00 +6°C° 0.1 mm 2 m/s 719 mmHg 89%
01:00 +6°C° 0 mm 2 m/s 719 mmHg 90%
02:00 +6°C° 0 mm 2 m/s 719 mmHg 90%
03:00 +5°C° 0 mm 2 m/s 719 mmHg 90%
04:00 +5°C° 0 mm 2 m/s 719 mmHg 90%
05:00 +5°C° 0 mm 2 m/s 719 mmHg 89%
06:00 +5°C° 0 mm 2 m/s 719 mmHg 89%
07:00 +6°C° 0 mm 2 m/s 720 mmHg 87%
08:00 +7°C° 0 mm 2 m/s 720 mmHg 85%
09:00 +7°C° 0 mm 2 m/s 720 mmHg 83%
10:00 +9°C° 0 mm 3 m/s 720 mmHg 78%
11:00 +10°C° 0 mm 3 m/s 720 mmHg 72%
12:00 +12°C° 0 mm 4 m/s 720 mmHg 67%
13:00 +12°C° 0 mm 5 m/s 719 mmHg 67%
14:00 +11°C° 0 mm 6 m/s 719 mmHg 67%
15:00 +11°C° 0 mm 6 m/s 718 mmHg 66%
16:00 +10°C° 0.3 mm 5 m/s 718 mmHg 70%
17:00 +10°C° 0.3 mm 5 m/s 718 mmHg 74%
18:00 +10°C° 0.3 mm 4 m/s 718 mmHg 77%
19:00 +10°C° 0 mm 4 m/s 718 mmHg 79%
20:00 +9°C° 0 mm 3 m/s 718 mmHg 80%
21:00 +9°C° 0 mm 3 m/s 718 mmHg 82%
22:00 +9°C° 0 mm 3 m/s 718 mmHg 80%
23:00 +7°C° 0 mm 4 m/s 718 mmHg 78%

22 Janeiro, Sexta-feira

Tempo Temperatura Precipitação Vento Pressão Humidade
00:00 +7°C° 0 mm 4 m/s 718 mmHg 76%
01:00 +7°C° 0 mm 4 m/s 718 mmHg 77%
02:00 +7°C° 0 mm 3 m/s 718 mmHg 77%
03:00 +7°C° 0 mm 3 m/s 717 mmHg 77%
04:00 +7°C° 0 mm 2 m/s 717 mmHg 78%
05:00 +6°C° 0 mm 2 m/s 716 mmHg 80%
06:00 +7°C° 0 mm 1 m/s 715 mmHg 81%
07:00 +6°C° 0.6 mm 2 m/s 715 mmHg 83%
08:00 +7°C° 0.6 mm 2 m/s 714 mmHg 86%
09:00 +7°C° 0.6 mm 3 m/s 713 mmHg 89%
10:00 +7°C° 0.6 mm 6 m/s 713 mmHg 77%
11:00 +8°C° 0.6 mm 9 m/s 713 mmHg 65%
12:00 +9°C° 0.6 mm 12 m/s 713 mmHg 53%
13:00 +8°C° 0.2 mm 12 m/s 713 mmHg 58%
14:00 +7°C° 0.2 mm 13 m/s 713 mmHg 62%
15:00 +6°C° 0.2 mm 14 m/s 713 mmHg 66%
16:00 +5°C° 0.1 mm 13 m/s 715 mmHg 68%
17:00 +4°C° 0.1 mm 12 m/s 716 mmHg 69%
18:00 +3°C° 0.1 mm 11 m/s 717 mmHg 71%
19:00 +3°C° 0 mm 10 m/s 718 mmHg 72%
20:00 +2°C° 0 mm 9 m/s 719 mmHg 73%
21:00 +2°C° 0 mm 8 m/s 720 mmHg 74%
22:00 +2°C° 0 mm 7 m/s 720 mmHg 76%
23:00 +2°C° 0 mm 6 m/s 720 mmHg 77%

23 Janeiro, Sábado

Tempo Temperatura Precipitação Vento Pressão Humidade
00:00 +3°C° 0 mm 4 m/s 720 mmHg 79%
01:00 +2°C° 0 mm 5 m/s 720 mmHg 79%
02:00 +2°C° 0 mm 5 m/s 720 mmHg 78%
03:00 +2°C° 0 mm 5 m/s 720 mmHg 78%
04:00 +2°C° 0 mm 5 m/s 720 mmHg 76%
05:00 +2°C° 0 mm 5 m/s 720 mmHg 75%
06:00 +2°C° 0 mm 5 m/s 720 mmHg 73%
07:00 +3°C° 0 mm 5 m/s 720 mmHg 73%
08:00 +5°C° 0 mm 5 m/s 720 mmHg 72%
09:00 +4°C° 0 mm 6 m/s 720 mmHg 72%
10:00 +5°C° 0 mm 7 m/s 720 mmHg 68%
11:00 +7°C° 0 mm 8 m/s 720 mmHg 63%
12:00 +8°C° 0 mm 9 m/s 720 mmHg 59%
13:00 +9°C° 0.1 mm 8 m/s 720 mmHg 61%
14:00 +9°C° 0.1 mm 8 m/s 719 mmHg 63%
15:00 +8°C° 0.1 mm 7 m/s 719 mmHg 66%
16:00 +8°C° 0.8 mm 6 m/s 718 mmHg 73%
17:00 +7°C° 0.8 mm 4 m/s 718 mmHg 79%
18:00 +7°C° 0.8 mm 2 m/s 717 mmHg 86%
19:00 +7°C° 0.4 mm 3 m/s 716 mmHg 85%
20:00 +7°C° 0.4 mm 4 m/s 716 mmHg 83%
21:00 +7°C° 0.4 mm 5 m/s 715 mmHg 82%
22:00 +7°C° 0.3 mm 4 m/s 715 mmHg 83%
23:00 +7°C° 0.3 mm 4 m/s 714 mmHg 84%

24 Janeiro, Domingo

Tempo Temperatura Precipitação Vento Pressão Humidade
00:00 +8°C° 0.3 mm 3 m/s 714 mmHg 84%
01:00 +7°C° 0 mm 6 m/s 714 mmHg 81%
02:00 +6°C° 0 mm 8 m/s 715 mmHg 78%
03:00 +6°C° 0 mm 11 m/s 715 mmHg 75%
04:00 +5°C° 0 mm 10 m/s 716 mmHg 76%
05:00 +3°C° 0 mm 9 m/s 717 mmHg 78%
06:00 +4°C° 0 mm 8 m/s 718 mmHg 79%
07:00 +4°C° 0 mm 8 m/s 719 mmHg 78%
08:00 +4°C° 0 mm 8 m/s 720 mmHg 78%
09:00 +4°C° 0 mm 8 m/s 721 mmHg 77%
10:00 +5°C° 0 mm 9 m/s 721 mmHg 72%
11:00 +6°C° 0 mm 9 m/s 722 mmHg 68%
12:00 +6°C° 0 mm 9 m/s 722 mmHg 64%
13:00 +6°C° 0 mm 9 m/s 722 mmHg 64%
14:00 +6°C° 0 mm 9 m/s 722 mmHg 64%
15:00 +7°C° 0 mm 9 m/s 722 mmHg 64%
16:00 +6°C° 0 mm 8 m/s 722 mmHg 66%
17:00 +5°C° 0 mm 7 m/s 723 mmHg 68%
18:00 +5°C° 0 mm 5 m/s 723 mmHg 69%
19:00 +5°C° 0 mm 5 m/s 723 mmHg 71%
20:00 +4°C° 0 mm 4 m/s 724 mmHg 73%
21:00 +4°C° 0 mm 4 m/s 724 mmHg 75%
22:00 +4°C° 0 mm 4 m/s 724 mmHg 77%
23:00 +4°C° 0 mm 3 m/s 724 mmHg 79%
Mostrar mais

Necessitamos do seu Consentimento

A Meteoprog e os seus Fornecedores de Serviços podem armazenar e aceder a dados pessoais como cookies, identificadores do dispositivo ou outras tecnologias semelhantes existentes no seu dispositivo e processar estes dados para personalizar conteúdos e anúncios, assim como funcionalidades nas redes sociais e análise de tráfego.

  • Armazenar e/ou aceder a informações no seu dispositivo

    Os cookies, identificadores do dispositivo ou outras informações podem ser armazenados ou acedidos no seu dispositivo, para os fins acima indicados.

  • Anúncios e conteúdos personalizados, medição de anúncios e conteúdos, dados sobre o público-alvo e desenvolvimento de produtos

    Os anúncios e os conteúdos podem ser personalizados com base num perfil. Podem ser adicionados dados adicionais para uma maior personalização dos anúncios e dos conteúdos. A eficácia dos anúncios e dos conteúdos pode ser medida. Podem ser obtidas informações sobre o público que visualizou os anúncios e os conteúdos. Estes dados podem ser usados para desenvolver ou melhorar sistemas, softwares ou a experiência do utilizador.

Ao clicar em "Eu concordo”, permitirá o uso de cookies, identificadores do dispositivo e web beacons mencionados ou outras tecnologias semelhantes. As configurações do navegador do seu dispositivo podem ser alteradas.

Para certos fins, podem ser invocados interesses legítimos ao invés de consentimento. Pode ler mais informação sobre este assunto na nossa Política de Privacidade e Cookies.